[[{"header":{"parameterUnit":"m.s-1","parameterCategory":1,"la1":30.2991,"la2":30.254,"lo1":-89.0895,"lo2":-89.0444,"dy":0.0017,"dx":0.0017,"nx":28,"ny":28,"refTime":"2023-08-30T21:00:00:Z","depth":0,"parameterNumber":2,"parameterNumberName":"U-component_of_WINDS"},"data":[0,0,0,0,0,0,0,0,0,0,0,0,0,0,0,0,0,0,0,0,0,0,0,0,0,0,0,0,0,0,0,0,0,0,0,0,0,0,0,0,0,0,0,0,0,0,0,0,0,0,0,0,0,0,0,0,0,0,0.951,0.9511,0,0.9566,0.9567,0.9567,0.9583,0.9583,0.9583,0.9582,0.9642,0.9644,0.9646,0,0,0,0,0,0,0,0,0,0,0,0,0,0.9419,0.9421,0.951,0.9511,0.9511,0.9566,0.9567,0.9568,0.9583,0.9583,0.9582,0.9582,0.9641,0.9644,0.9646,0,0,0,0,0,0,0,0,0,0,0,0,0,0.9465,0.9421,0.951,0.9526,0.9528,0.9566,0.9567,0.9568,0.9583,0.9583,0.9582,0.9582,0.9641,0.9643,0.9646,0.9674,0,0,0.9655,0.9656,0,0,0,0,0,0,0,0,0.9463,0.9469,0.9523,0.9525,0.9527,0.9567,0.9557,0.9603,0.9583,0.9562,0.9582,0.9582,0.9618,0.9622,0.9634,0.9676,0.9679,0.9655,0.9657,0.9658,0.9659,0,0,0,0,0,0,0,0.9459,0.9466,0.9532,0.9523,0.9526,0.9531,0.9537,0.9566,0.9592,0.9564,0.9565,0.9572,0.9619,0.9631,0.9636,0.968,0.9655,0.9658,0.9659,0.9661,0.9749,0.975,0,0,0,0,0,0,0.9453,0.9463,0.953,0.9534,0.9493,0.9533,0.954,0.9555,0.9592,0.9597,0.9572,0.9572,0.9627,0.9632,0.9638,0.9674,0.9658,0.9661,0.9662,0.9749,0.975,0.975,0,0,0,0,0,0,0.9451,0.9459,0.9528,0.9499,0.9508,0.9535,0.9552,0.9556,0.9569,0.9598,0.9603,0.958,0.9627,0.9634,0.9665,0.9676,0.9662,0.9665,0.9748,0.9749,0.975,0.9744,0,0,0,0,0,0,0.9448,0.9458,0.9468,0.9499,0.951,0.9553,0.9552,0.9558,0.9573,0.9574,0.9606,0.9611,0.9627,0.9661,0.9668,0.9679,0.9667,0.9747,0.9748,0.975,0.9744,0.9745,0.9746,0,0,0,0,0,0.9445,0.9464,0.9468,0.9476,0.9522,0.9554,0.956,0.9577,0.9574,0.9585,0.9604,0.961,0.9673,0.9664,0.9672,0.9685,0.9747,0.9748,0.9749,0.9743,0.9745,0.9746,0,0,0,0,0,0,0.9434,0.9468,0.9473,0.9503,0.9525,0.9556,0.957,0.9578,0.9602,0.9601,0.9622,0.9629,0.9659,0.9675,0.9663,0.9714,0.971,0.9713,0.9702,0.9704,0.9705,0.9701,0.9669,0,0,0,0,0,0.9435,0.9456,0.9486,0.9509,0.952,0.9543,0.9557,0.9568,0.9593,0.9602,0.9624,0.9648,0.9673,0.9689,0.9714,0.9746,0.9754,0.9759,0.976,0.9761,0.9764,0.9783,0.9786,0.9755,0.9755,0.9755,0,0,0.9437,0.9458,0.9471,0.9507,0.9526,0.9549,0.9551,0.9575,0.9593,0.9606,0.9637,0.9654,0.9682,0.9714,0.9729,0.9728,0.9774,0.9763,0.9763,0.9766,0.9785,0.9788,0.9791,0.9756,0.9756,0.9756,0,0,0.9453,0.9471,0.9493,0.9512,0.954,0.9555,0.956,0.9591,0.9602,0.9633,0.9644,0.9666,0.9709,0.9729,0.9745,0.977,0.9778,0.9778,0.9785,0.9803,0.9806,0.9808,0.9819,0.9822,0.978,0.978,0.978,0,0.9452,0.9487,0.9503,0.9527,0.9544,0.9557,0.958,0.9598,0.9633,0.9644,0.9642,0.9697,0.9717,0.9755,0.9761,0.9773,0.9781,0.9775,0.9804,0.9807,0.9809,0.9819,0.9823,0.978,0.978,0.978,0.978,0,0.9485,0.9509,0.9524,0.9557,0.9575,0.9599,0.962,0.9637,0.9647,0.9663,0.9695,0.9719,0.975,0.976,0.9769,0.9799,0.9798,0.98,0.9797,0.9812,0.9822,0.9826,0.978,0.978,0.978,0.978,0,0,0.9496,0.9538,0.9544,0.956,0.9592,0.9612,0.9636,0.9666,0.9681,0.9705,0.9727,0.9763,0.9766,0.9784,0.9796,0.9812,0.9833,0.9813,0.9814,0.9817,0.9869,0.9868,0.9872,0.9838,0.9838,0.9839,0.9867,0,0.9517,0.9561,0.9577,0.9614,0.9637,0.965,0.9672,0.9695,0.9711,0.9734,0.9752,0.9778,0.9779,0.979,0.9807,0.9827,0.9844,0.9825,0.986,0.9861,0.9854,0.9878,0.9877,0.9902,0.9871,0.9872,0.9872,0,0.9547,0.9571,0.961,0.9641,0.9652,0.9671,0.97,0.9722,0.9749,0.9759,0.978,0.9791,0.982,0.9814,0.9854,0.9841,0.9856,0.9869,0.987,0.9875,0.9868,0.9884,0.991,0.9914,0.9878,0.9878,0.9877,0,0.9552,0.9595,0.9624,0.9637,0.9673,0.9687,0.9703,0.973,0.9747,0.9773,0.9785,0.9814,0.983,0.9852,0.9872,0.9866,0.9911,0.9907,0.9922,0.9921,0.9931,0.9931,0.9961,0.9939,0.9939,0.9939,0.9939,0,0.9574,0.9598,0.9627,0.9645,0.9673,0.9692,0.9719,0.9736,0.9759,0.9782,0.9795,0.9816,0.984,0.9865,0.988,0.9912,0.9919,0.9929,0.9934,0.9929,0.9928,0.994,0.9939,0.994,0.994,0.994,0.9939,0,0.9585,0.9605,0.9638,0.967,0.9679,0.9698,0.9726,0.9745,0.9762,0.979,0.9798,0.9825,0.9855,0.9876,0.9915,0.9926,0.996,0.9963,0.9951,0.9953,0.9968,0.9966,1.0008,1.0015,0.9987,0.9987,0.9988,0,0.9598,0.9617,0.9651,0.9667,0.9683,0.9709,0.9726,0.9746,0.9765,0.9798,0.9813,0.9844,0.9869,0.9917,0.9941,0.9971,0.9976,0.9988,0.998,0.9976,0.9978,0.9977,0.998,0.999,0.999,0.999,0.999,0,0.9621,0.963,0.9655,0.9684,0.9705,0.9728,0.9752,0.9765,0.9789,0.981,0.984,0.986,0.99,0.9931,0.9963,0.9981,0.9991,0.9992,0.9998,0.9994,0.9986,0.9992,0.9955,0.9992,0.9991,0.9991,0.9991,0.9991,0.9634,0.9652,0.9679,0.9707,0.9727,0.975,0.9769,0.9789,0.9815,0.9848,0.9859,0.9891,0.9919,0.9964,0.9982,1.0008,1.0008,1.0015,1.0018,1.0019,1.002,0.9981,1.0014,1.0014,1.0014,1.0014,1.0014,0,0.9658,0.9677,0.9702,0.9735,0.9758,0.9764,0.9791,0.981,0.9838,0.9863,0.9888,0.9924,0.9955,0.9981,1.0013,1.0029,1.0034,1.0037,1.0036,1.0041,1.0018,1.0011,1.0032,1.0032,1.0032,1.0032,1.0032,1.0032,0.9673,0.9704,0.9717,0.9759,0.9778,0.9809,0.9824,0.9846,0.9866,0.9906,0.9931,0.9948,0.9974,1.0008,1.0037,1.0044,1.0056,1.0058,1.0066,1.0044,1.0042,1.004,1.0034,1.006,1.006,1.0087,1.0087,1.0087]},{"header":{"parameterUnit":"m.s-1","parameterCategory":1,"la1":30.2991,"la2":30.254,"lo1":-89.0895,"lo2":-89.0444,"dy":0.0017,"dx":0.0017,"nx":28,"ny":28,"refTime":"2023-08-30T21:00:00:Z","depth":0,"parameterNumber":3,"parameterNumberName":"V-component_of_WINDS"},"data":[0,0,0,0,0,0,0,0,0,0,0,0,0,0,0,0,0,0,0,0,0,0,0,0,0,0,0,0,0,0,0,0,0,0,0,0,0,0,0,0,0,0,0,0,0,0,0,0,0,0,0,0,0,0,0,0,0,0,-1.708,-1.708,0,-1.709,-1.7091,-1.7091,-1.7216,-1.7219,-1.7222,-1.7225,-1.723,-1.7227,-1.7224,0,0,0,0,0,0,0,0,0,0,0,0,0,-1.7164,-1.7162,-1.708,-1.708,-1.708,-1.709,-1.7091,-1.7091,-1.7215,-1.7219,-1.7223,-1.7227,-1.723,-1.7227,-1.7224,0,0,0,0,0,0,0,0,0,0,0,0,0,-1.7146,-1.7161,-1.708,-1.7144,-1.715,-1.709,-1.7091,-1.7091,-1.7214,-1.7219,-1.7224,-1.7228,-1.7232,-1.7227,-1.7223,-1.7102,0,0,-1.721,-1.7208,0,0,0,0,0,0,0,0,-1.7147,-1.7143,-1.7134,-1.7139,-1.7146,-1.7157,-1.7122,-1.7094,-1.7213,-1.719,-1.7225,-1.7231,-1.7201,-1.72,-1.7191,-1.7102,-1.7102,-1.721,-1.7207,-1.7205,-1.7204,0,0,0,0,0,0,0,-1.7148,-1.7143,-1.7084,-1.7134,-1.7141,-1.7171,-1.7173,-1.7117,-1.7168,-1.7192,-1.7201,-1.7201,-1.7205,-1.7195,-1.7192,-1.7102,-1.721,-1.7206,-1.7204,-1.7202,-1.6916,-1.6911,0,0,0,0,0,0,-1.7141,-1.7143,-1.7084,-1.7084,-1.7158,-1.7165,-1.7168,-1.7148,-1.7169,-1.7177,-1.7197,-1.7207,-1.72,-1.7197,-1.7193,-1.7053,-1.7205,-1.7201,-1.7199,-1.6921,-1.6915,-1.6909,0,0,0,0,0,0,-1.7143,-1.7135,-1.7083,-1.7116,-1.7112,-1.7159,-1.7135,-1.7146,-1.7136,-1.7173,-1.7182,-1.7177,-1.7203,-1.7199,-1.7124,-1.7055,-1.72,-1.7196,-1.6927,-1.6919,-1.6912,-1.6771,0,0,0,0,0,0,-1.7144,-1.7134,-1.7089,-1.7115,-1.711,-1.7015,-1.7131,-1.7143,-1.7129,-1.7142,-1.7157,-1.7164,-1.7207,-1.713,-1.712,-1.7051,-1.7192,-1.6933,-1.6923,-1.6915,-1.6782,-1.676,-1.674,0,0,0,0,0,-1.7147,-1.7047,-1.7086,-1.7078,-1.7055,-1.7011,-1.7008,-1.7061,-1.7123,-1.7078,-1.7102,-1.7164,-1.7064,-1.7121,-1.7111,-1.704,-1.6938,-1.6926,-1.6915,-1.6791,-1.6764,-1.6741,0,0,0,0,0,0,-1.7009,-1.7052,-1.7095,-1.7001,-1.7002,-1.7032,-1.6977,-1.703,-1.7012,-1.7024,-1.7089,-1.7091,-1.7007,-1.7016,-1.7079,-1.6925,-1.7012,-1.6998,-1.6921,-1.6895,-1.6875,-1.6874,-1.7189,0,0,0,0,0,-1.6969,-1.6932,-1.697,-1.6883,-1.6882,-1.6929,-1.6912,-1.6953,-1.6955,-1.6955,-1.6974,-1.6973,-1.6942,-1.6919,-1.6892,-1.6785,-1.679,-1.6731,-1.671,-1.6693,-1.6679,-1.6624,-1.6599,-1.6872,-1.6872,-1.6872,0,0,-1.6883,-1.6902,-1.6873,-1.6856,-1.6861,-1.682,-1.6928,-1.6879,-1.6849,-1.6947,-1.6879,-1.6893,-1.6896,-1.6804,-1.6765,-1.681,-1.6606,-1.6678,-1.6664,-1.666,-1.661,-1.6584,-1.6561,-1.6864,-1.6866,-1.6867,0,0,-1.6706,-1.6716,-1.6646,-1.6651,-1.6659,-1.6691,-1.6674,-1.6697,-1.6711,-1.6644,-1.6718,-1.6682,-1.6627,-1.6626,-1.6619,-1.6445,-1.6501,-1.6434,-1.6324,-1.627,-1.6248,-1.6229,-1.6167,-1.6144,-1.6421,-1.6421,-1.6421,0,-1.6598,-1.6541,-1.6603,-1.655,-1.654,-1.6631,-1.656,-1.656,-1.6558,-1.6548,-1.6599,-1.6533,-1.6541,-1.6452,-1.641,-1.64,-1.6383,-1.6432,-1.6247,-1.6228,-1.6212,-1.6153,-1.613,-1.6413,-1.6414,-1.6414,-1.6415,0,-1.6407,-1.6366,-1.6309,-1.6307,-1.6291,-1.6229,-1.6281,-1.6257,-1.63,-1.6327,-1.6259,-1.6272,-1.625,-1.6233,-1.6273,-1.6149,-1.6176,-1.6236,-1.6325,-1.6177,-1.6123,-1.6101,-1.6401,-1.6404,-1.6406,-1.6408,0,0,-1.6141,-1.6178,-1.6156,-1.6157,-1.6174,-1.6143,-1.6086,-1.6067,-1.6045,-1.6041,-1.5994,-1.5947,-1.6003,-1.5994,-1.6036,-1.5988,-1.585,-1.6054,-1.6055,-1.6015,-1.5715,-1.5669,-1.5642,-1.5888,-1.5884,-1.5881,-1.5714,0,-1.597,-1.5877,-1.5932,-1.5829,-1.5793,-1.588,-1.583,-1.5834,-1.5859,-1.583,-1.5857,-1.5822,-1.5899,-1.5894,-1.5851,-1.5876,-1.579,-1.5889,-1.5844,-1.5841,-1.5839,-1.5614,-1.5566,-1.5407,-1.5694,-1.569,-1.5688,0,-1.5758,-1.5749,-1.5643,-1.567,-1.5656,-1.561,-1.5599,-1.5571,-1.5578,-1.5599,-1.5591,-1.5645,-1.559,-1.5679,-1.5604,-1.5669,-1.5655,-1.5664,-1.566,-1.5656,-1.5754,-1.5604,-1.5358,-1.5334,-1.5655,-1.5658,-1.566,0,-1.5575,-1.5535,-1.5468,-1.5466,-1.5495,-1.5461,-1.5471,-1.5484,-1.547,-1.5459,-1.5451,-1.5433,-1.5422,-1.5407,-1.5455,-1.5515,-1.5373,-1.5466,-1.5388,-1.5386,-1.5352,-1.5353,-1.51,-1.5344,-1.5344,-1.5345,-1.5345,0,-1.5378,-1.5309,-1.5386,-1.5344,-1.527,-1.5335,-1.526,-1.5279,-1.529,-1.5252,-1.5326,-1.5289,-1.5355,-1.5324,-1.536,-1.5293,-1.5287,-1.5302,-1.5312,-1.5295,-1.5293,-1.5285,-1.5297,-1.5338,-1.534,-1.5341,-1.5342,0,-1.5159,-1.5208,-1.514,-1.5175,-1.5182,-1.5126,-1.5155,-1.5117,-1.5148,-1.51,-1.5092,-1.5139,-1.5107,-1.5154,-1.5126,-1.5151,-1.5058,-1.5085,-1.5056,-1.5063,-1.4983,-1.4989,-1.4714,-1.4681,-1.4947,-1.4944,-1.4942,0,-1.503,-1.498,-1.5011,-1.4993,-1.5,-1.4968,-1.4956,-1.5018,-1.5001,-1.5008,-1.4968,-1.4944,-1.4927,-1.4871,-1.4902,-1.4881,-1.4908,-1.4814,-1.4905,-1.489,-1.4907,-1.4909,-1.4904,-1.4794,-1.4791,-1.4788,-1.4786,0,-1.4795,-1.4823,-1.4803,-1.4791,-1.4775,-1.4768,-1.4767,-1.4747,-1.4813,-1.479,-1.476,-1.4747,-1.4721,-1.4695,-1.4683,-1.4692,-1.4749,-1.4757,-1.4738,-1.4719,-1.4704,-1.4711,-1.5004,-1.4763,-1.4765,-1.4767,-1.4768,-1.4769,-1.4617,-1.4578,-1.4594,-1.457,-1.4576,-1.4574,-1.4541,-1.4569,-1.4546,-1.4531,-1.4569,-1.453,-1.454,-1.453,-1.4533,-1.4503,-1.4544,-1.4516,-1.4509,-1.4501,-1.4488,-1.471,-1.45,-1.4501,-1.4502,-1.4503,-1.4503,0,-1.4386,-1.4402,-1.4379,-1.4377,-1.4358,-1.4418,-1.442,-1.4399,-1.4364,-1.437,-1.4353,-1.4319,-1.4295,-1.4325,-1.4306,-1.4276,-1.4301,-1.4268,-1.4271,-1.4272,-1.4452,-1.4471,-1.4248,-1.4248,-1.4248,-1.4248,-1.4248,-1.4248,-1.4263,-1.42,-1.423,-1.4171,-1.4187,-1.4152,-1.4148,-1.4146,-1.4151,-1.4111,-1.4092,-1.4113,-1.4129,-1.4112,-1.4092,-1.4102,-1.4091,-1.4048,-1.4067,-1.4234,-1.4259,-1.4283,-1.4301,-1.4046,-1.4045,-1.3889,-1.3888,-1.3887]}]]